{"data":{"norad_id":56123,"epoch":"2026-05-25T04:29:21.223680Z","epoch_age_seconds":59117,"freshness":"FRESH","line1":"1 56123U 23046AH  26145.18705120 -.00003154  00000+0 -10512-3 0  9990","line2":"2 56123  43.0054  75.4645 0000655 240.8166 119.2620 15.27590472173890","mean_motion":15.27590472,"eccentricity":6.55e-5,"inclination_deg":43.0054,"raan_deg":75.4645,"arg_perigee_deg":240.8166,"mean_anomaly_deg":119.262,"bstar":-0.00010512,"rev_number":17389,"period_min":94.266102492422,"perigee_km":482.56833364808,"apogee_km":483.46714491893,"semimajor_km":6861.1547392835,"source":"CELESTRAK","updated_at":"2026-05-25T13:38:17.958941Z"}}